Weather History for KBDR - April, 2013

Change the Weather History Date:

Saturday, April 13, 2013

  Actual Average Record
Temperature  
Mean Temperature 46 °F 49 °F  
Max Temperature 53 °F 57 °F 74 °F (1968)
Min Temperature 38 °F 40 °F 28 °F (1967)
Degree Days  
Heating Degree Days 19 16  
Month to date heating degree days 228 242  
Since 1 July heating degree days 4646 4926  
Cooling Degree Days 0 0  
Month to date cooling degree days 0 0  
Year to date cooling degree days 0 0  
Moisture  
Dew Point 37 °F    
Average Humidity 69    
Maximum Humidity 92    
Minimum Humidity 46    
Precipitation  
Precipitation 0.04 in 0.15 in 3.08 in (2004)
Month to date precipitation 0.82 1.87  
Year to date precipitation 10.38 11.81  
Snow  
Snow 0.00 in 0.00 in 0.00 in (2002)
Month to date snowfall 0.0 0.6  
Since 1 July snowfall 64.3 27.3  
Snow Depth 0.00 in    
Sea Level Pressure  
Sea Level Pressure 29.85 in    
Wind  
Wind Speed 8 mph (WSW)    
Max Wind Speed 15 mph    
Max Gust Speed 20 mph    
Visibility 10 miles    
Events Rain    
T = Trace of Precipitation, MM = Missing Value Source: NWS Daily Summary

Daily Weather History Graph

Daily Weather History Graph

Search for Another Location

Airport or City:

Trip Planner

Search our weather history database for the weather conditions in past years. The results will help you decide how hot, cold, wet, or windy it might be!

Date:

Astronomy

Apr. 13, 2013 Rise Set
Actual Time 6:15 AM EDT 7:30 PM EDT
Civil Twilight 5:47 AM EDT 7:59 PM EDT
Nautical Twilight 5:13 AM EDT 8:33 PM EDT
Astronomical Twilight 4:37 AM EDT 9:09 PM EDT
Moon 8:03 AM EDT (4/13) 10:53 PM EDT (4/13)
Length of Visible Light 14h 11m
Length of Day
13h 14m
Waxing Crescent, 10% of the Moon is Illuminated
Apr 13
Waxing Crescent
Apr 18
First Quarter
Apr 25
Full
May 2
Last Quarter
May 9
New

Hourly Weather History & Observations

Time (EDT) Temp. Windchill Dew Point Humidity Pressure Visibility Wind Dir Wind Speed Gust Speed Precip Events Conditions
12:41 AM 39.2 °F 31.2 °F 37.4 °F 93% 29.76 in 10.0 mi NNE 13.8 mph - 0.01 in Rain Light Rain
12:52 AM 39.9 °F 32.5 °F 37.9 °F 93% 29.77 in 10.0 mi North 12.7 mph - 0.01 in Rain Light Rain
1:52 AM 39.9 °F 32.5 °F 37.0 °F 89% 29.75 in 9.0 mi NNE 12.7 mph - 0.02 in Rain Light Rain
2:20 AM 39.2 °F 33.0 °F 37.4 °F 93% 29.77 in 10.0 mi North 9.2 mph 18.4 mph 0.02 in Rain Light Rain
2:52 AM 39.9 °F 33.9 °F 37.0 °F 89% 29.77 in 10.0 mi North 9.2 mph - 0.02 in   Overcast
3:31 AM 39.2 °F 31.6 °F 35.6 °F 87% 29.79 in 10.0 mi North 12.7 mph 18.4 mph N/A   Overcast
3:52 AM 39.9 °F 33.9 °F 35.1 °F 83% 29.80 in 10.0 mi North 9.2 mph - N/A   Overcast
4:52 AM 39.9 °F 35.8 °F 35.1 °F 83% 29.83 in 10.0 mi North 5.8 mph - N/A   Overcast
5:48 AM 39.2 °F 35.9 °F 33.8 °F 81% 29.83 in 10.0 mi North 4.6 mph - N/A   Scattered Clouds
5:52 AM 39.0 °F 35.7 °F 34.0 °F 82% 29.83 in 10.0 mi North 4.6 mph - N/A   Partly Cloudy
6:52 AM 39.9 °F - 36.0 °F 86% 29.84 in 10.0 mi Calm Calm - N/A   Overcast
7:52 AM 41.0 °F 36.4 °F 35.1 °F 79% 29.86 in 10.0 mi North 6.9 mph - N/A   Overcast
8:52 AM 43.0 °F 41.3 °F 36.0 °F 76% 29.88 in 10.0 mi Variable 3.5 mph - N/A   Scattered Clouds
9:52 AM 44.1 °F 40.8 °F 37.0 °F 76% 29.89 in 10.0 mi South 5.8 mph - N/A   Mostly Cloudy
10:52 AM 45.0 °F 40.6 °F 37.0 °F 74% 29.90 in 10.0 mi South 8.1 mph - N/A   Overcast
11:52 AM 46.0 °F 41.0 °F 37.0 °F 71% 29.90 in 10.0 mi SW 10.4 mph - N/A   Overcast
12:52 PM 48.9 °F - 39.0 °F 69% 29.88 in 10.0 mi SW 8.1 mph - N/A   Overcast
1:52 PM 52.0 °F - 39.9 °F 63% 29.87 in 10.0 mi SW 12.7 mph - N/A   Mostly Cloudy
2:52 PM 51.1 °F - 37.0 °F 59% 29.86 in 10.0 mi SSW 13.8 mph - N/A   Overcast
3:52 PM 51.1 °F - 35.1 °F 54% 29.87 in 10.0 mi South 12.7 mph - N/A   Overcast
4:52 PM 53.1 °F - 34.0 °F 48% 29.87 in 10.0 mi SSW 10.4 mph - N/A   Overcast
5:52 PM 53.1 °F - 37.9 °F 57% 29.88 in 10.0 mi SW 6.9 mph - N/A   Overcast
6:52 PM 51.1 °F - 37.0 °F 59% 29.87 in 10.0 mi SSE 4.6 mph - N/A   Partly Cloudy
7:52 PM 50.0 °F - 39.0 °F 66% 29.90 in 10.0 mi SW 10.4 mph - N/A   Mostly Cloudy
8:52 PM 48.0 °F - 41.0 °F 77% 29.93 in 10.0 mi SW 10.4 mph - N/A   Clear
9:52 PM 46.9 °F - 41.0 °F 80% 29.95 in 10.0 mi WSW 5.8 mph - N/A   Clear
10:52 PM 46.0 °F 43.9 °F 41.0 °F 83% 29.95 in 10.0 mi SW 4.6 mph - N/A   Clear
11:52 PM 46.0 °F 41.4 °F 41.0 °F 83% 29.96 in 10.0 mi SSW 9.2 mph - N/A   Overcast